Theta_e
348 348 348 350 350 351 351 351 353 351 349 350 349 345 345 344 344 346 346 350 355 357 355 356 358 356 355 355 354 355 353 353 354 352 353 353 352 352 349 348 348 348 349
349 348 348 349 353 353 354 352 351 351 350 350 351 349 344 345 346 348 348 346 356 357 357 355 355 356 356 357 355 355 356 354 352 354 351 354 354 351 349 349 350 351 351
350 350 349 348 351 352 353 352 350 350 342 338 336 336 339 343 341 349 349 347 350 353 357 358 356 356 354 356 357 356 357 357 353 352 354 354 353 354 353 351 352 352 352
350 349 350 348 351 352 352 348 348 345 339 337 333 335 337 338 338 346 349 348 350 350 351 357 360 357 354 353 352 357 357 355 354 357 356 355 354 354 355 355 353 352 352
351 350 350 351 351 351 350 348 345 343 335 335 336 336 337 337 338 341 345 348 347 351 348 351 356 355 353 353 353 353 354 354 354 356 357 357 355 355 357 356 355 355 354
352 351 351 352 351 349 349 345 344 340 336 335 333 334 335 336 338 340 341 341 344 350 349 349 352 351 354 352 355 355 353 353 355 356 355 356 356 356 355 356 355 355 354
354 352 350 351 351 349 348 345 341 337 333 335 331 332 334 333 335 333 335 344 347 348 348 348 349 352 351 353 351 352 352 352 352 353 354 352 353 355 355 354 354 355 355
354 353 350 350 349 347 346 343 339 333 332 334 329 328 327 332 333 330 335 341 344 346 346 347 348 348 348 351 352 352 353 352 352 351 351 350 349 347 347 346 347 349 351
354 354 351 350 349 348 344 342 337 334 332 334 330 331 325 324 329 332 329 335 341 342 343 345 345 344 344 345 342 345 347 349 347 346 344 343 342 340 340 340 341 343 343
351 354 351 350 349 348 346 342 337 333 334 333 333 331 329 331 325 324 329 330 331 337 338 339 343 345 342 339 334 336 341 342 341 336 335 335 335 335 336 337 339 341 341
353 353 352 350 349 348 346 340 337 337 333 333 332 330 329 326 326 325 322 326 329 329 332 333 333 342 342 338 334 332 339 340 340 339 335 331 331 331 331 331 332 334 336
351 352 351 350 349 347 344 340 338 338 335 335 334 333 330 329 326 324 323 323 325 328 329 329 330 332 342 341 337 332 340 339 337 337 337 337 333 334 335 337 337 337 337
348 350 351 348 345 344 343 340 337 336 337 335 335 333 332 329 329 325 323 322 323 325 328 330 329 331 331 341 340 340 339 340 337 335 335 335 337 337 337 338 338 339 339
348 352 351 350 347 344 342 339 336 334 336 336 334 333 333 331 328 327 326 325 321 322 324 329 330 333 332 332 338 339 339 336 337 334 334 334 334 336 338 339 340 340 340
349 350 351 350 348 344 341 338 336 335 335 335 335 335 333 331 332 330 327 326 326 320 321 326 327 332 334 333 333 338 338 337 336 336 333 333 334 335 336 338 338 338 339
350 349 350 350 348 343 341 338 336 336 336 334 333 334 334 331 332 331 331 327 325 325 322 324 328 331 333 334 333 337 335 336 336 333 333 333 333 334 335 336 336 336 337
348 347 349 349 347 343 340 339 337 336 336 335 335 333 334 333 330 331 331 328 327 325 324 328 327 330 330 333 333 335 335 336 335 331 332 331 331 332 333 333 333 333 332
347 347 348 348 346 344 341 339 337 337 335 334 335 334 334 332 332 332 330 331 330 330 329 330 329 328 330 329 330 331 332 333 335 333 331 330 329 329 328 328 326 325 325
346 346 347 346 344 343 340 341 340 338 337 336 335 335 335 335 334 332 331 330 330 332 332 329 329 328 331 331 330 327 332 332 330 331 329 328 327 326 324 322 321 320 318
345 345 345 346 345 344 342 340 340 339 338 338 337 335 335 335 334 334 332 332 332 333 332 332 331 331 330 331 329 324 325 327 326 328 331 328 327 326 325 322 321 322 319
348 345 345 345 345 344 342 341 339 338 338 337 338 338 336 335 335 333 333 333 333 332 331 330 328 327 326 325 324 325 322 324 326 329 328 328 327 327 327 324 324 324 321
350 347 345 344 344 344 335 333 339 338 338 337 336 337 338 336 335 331 330 331 334 333 331 330 328 327 329 328 327 326 322 324 320 328 325 325 326 326 327 326 323 322 321
349 347 346 345 344 345 329 330 335 341 338 337 337 337 336 338 335 337 330 329 329 329 331 332 329 328 330 331 329 326 325 323 322 327 325 322 324 323 326 324 321 321 320
347 348 347 346 345 345 326 326 333 342 340 339 338 337 338 338 336 336 337 334 334 334 333 334 334 334 333 332 331 329 326 325 325 325 324 319 323 320 323 323 321 321 319
348 348 348 346 345 346 324 324 329 340 338 337 337 338 337 336 329 326 333 333 332 331 326 324 325 323 322 322 326 326 323 321 320 320 320 319 320 318 319 319 321 318 316
350 350 349 349 341 346 324 320 328 340 336 336 338 337 328 334 321 320 335 331 329 328 331 329 332 326 324 326 322 327 325 321 318 316 319 316 316 316 309 316 314 316 316
Wind_Speed
3 2 3 3 3 3 3 2 2 1 2 2 2 2 2 3 4 1 1 5 7 8 6 8 11 10 10 9 9 10 10 9 8 7 6 6 6 5 4 4 2 3 4
2 3 3 3 3 3 2 0 2 1 1 1 1 1 3 4 1 3 2 3 7 7 6 7 8 11 10 11 10 9 10 9 9 7 7 7 7 6 6 6 5 5 6
4 4 3 3 3 2 1 2 2 2 3 3 4 2 2 3 3 4 3 2 2 4 5 7 7 8 9 11 11 11 11 10 11 10 8 8 7 8 8 8 7 6 6
5 4 3 3 2 1 2 2 1 1 1 2 2 2 2 1 3 3 2 2 3 2 3 4 5 7 8 8 10 11 12 11 8 10 10 10 9 10 9 9 9 8 8
6 5 3 3 2 2 2 1 1 1 1 2 2 2 4 2 2 2 2 4 3 2 1 3 3 5 6 7 7 8 10 10 12 13 12 10 10 10 10 10 9 8 9
8 5 3 4 3 3 2 1 1 1 2 2 2 4 3 3 3 2 2 2 2 3 3 0 1 1 4 5 1 4 6 7 10 11 12 11 10 11 10 11 10 10 10
7 6 3 3 3 3 3 2 2 1 2 1 2 2 3 5 5 3 2 1 3 3 4 3 2 2 3 4 1 2 2 2 5 7 8 9 11 11 11 11 10 12 12
7 6 6 5 4 3 3 3 3 1 1 1 2 1 2 3 3 5 3 3 3 3 3 4 4 4 3 2 4 6 6 5 6 6 6 3 2 4 4 5 4 6 6
8 8 7 5 5 4 4 3 4 4 3 1 2 3 2 2 0 3 4 3 3 2 2 3 3 3 3 2 3 4 5 5 5 5 5 4 4 2 2 2 2 3 4
7 7 7 6 6 4 4 4 4 3 3 3 1 2 3 2 3 0 1 1 2 0 1 1 1 3 3 1 1 1 3 4 4 4 4 4 4 3 3 3 4 5 6
6 7 8 8 6 5 5 6 5 5 3 2 2 2 1 1 1 3 2 1 1 2 3 3 3 3 4 3 2 2 3 3 2 3 2 1 2 3 3 2 2 3 5
4 7 7 8 7 6 6 6 5 5 4 3 2 2 3 2 2 2 2 2 2 2 2 4 4 4 4 4 5 6 6 6 5 4 3 3 3 4 5 6 6 6 6
3 7 8 7 6 6 6 6 5 5 5 4 4 3 2 2 2 2 2 1 1 1 2 3 4 4 5 5 5 7 8 8 8 7 6 7 6 6 7 9 9 9 9
7 8 9 9 9 8 6 6 5 5 4 4 6 4 3 3 3 2 2 3 1 1 1 2 2 3 4 6 7 9 7 9 9 8 8 8 9 9 9 10 10 11 12
7 8 10 11 10 9 8 8 6 6 6 5 5 5 3 3 3 3 3 2 3 3 2 2 2 2 2 3 6 7 7 8 9 9 9 8 9 11 12 11 12 12 12
9 9 10 10 10 9 9 9 6 5 7 4 4 6 4 3 4 3 3 3 2 3 2 3 2 2 1 1 1 4 5 6 8 9 9 9 10 12 12 11 11 11 12
11 10 11 11 11 10 9 9 7 7 8 6 5 7 7 5 5 4 3 3 3 2 2 1 2 0 1 1 1 1 2 4 5 9 9 9 9 9 8 8 7 8 9
11 12 11 11 11 12 11 12 11 9 10 9 9 8 8 6 6 5 5 5 4 4 3 4 3 3 2 1 2 1 1 3 4 5 6 5 6 6 5 5 5 6 7
12 11 12 13 13 13 12 12 12 11 12 12 11 10 10 9 7 6 5 6 4 4 4 3 4 2 2 1 1 1 1 3 2 5 8 4 4 4 4 4 7 8 8
14 14 14 14 14 14 13 13 12 11 11 11 11 11 10 11 10 8 7 8 6 5 4 3 2 2 2 3 1 1 1 1 2 1 6 5 5 3 4 6 7 7 8
16 16 15 14 14 14 12 14 13 13 13 12 11 10 10 9 11 10 6 7 7 5 4 4 3 3 3 4 4 2 2 1 3 3 4 2 2 3 5 6 8 11 10
14 14 15 15 15 12 16 18 17 13 13 13 12 11 9 12 12 15 15 12 12 9 7 4 4 4 5 4 3 2 2 1 3 2 2 3 1 6 7 6 9 11 11
15 15 15 14 16 15 16 20 21 12 12 13 13 10 9 6 10 10 13 11 12 15 9 9 5 6 4 6 4 3 3 4 5 4 2 6 3 6 7 6 10 11 11
18 15 16 16 14 12 16 20 23 14 12 12 12 12 11 11 11 10 8 8 9 9 9 6 8 6 5 4 4 2 2 3 3 5 4 4 3 5 4 5 10 12 12
16 17 14 16 17 14 20 22 18 14 11 12 12 12 11 10 9 13 9 9 8 7 6 8 7 4 4 7 5 3 4 4 3 3 4 3 2 3 3 6 7 9 11
15 12 14 15 18 17 19 21 22 11 12 10 11 11 16 12 14 17 11 9 8 6 6 3 4 3 6 5 10 8 4 5 3 3 3 4 2 2 4 2 4 6 6
Wind_Direction
246 276 267 272 276 277 270 311 318 16 75 18 74 126 179 226 216 156 155 216 203 224 211 211 192 191 199 211 201 196 191 198 207 208 209 202 191 196 212 230 243 253 282
227 239 246 273 262 259 270 76 87 10 359 81 26 50 214 220 146 200 188 238 245 220 226 208 203 206 207 209 210 214 205 205 218 216 217 226 210 216 229 238 250 273 274
200 228 217 250 251 252 147 120 59 22 14 51 103 29 344 301 225 203 203 224 267 298 225 221 200 206 203 234 216 216 215 207 216 217 224 236 238 228 228 239 246 259 263
204 214 221 245 258 181 160 95 57 48 15 16 3 31 19 290 250 191 194 224 250 270 295 211 194 194 210 221 233 233 227 223 228 229 224 232 233 231 237 239 245 249 262
199 202 198 228 179 135 122 111 76 106 38 14 6 24 24 21 199 132 212 236 255 247 268 307 213 200 208 219 216 235 236 236 220 240 228 229 231 234 233 236 240 243 258
193 189 186 194 184 155 152 129 144 63 67 23 28 41 35 360 53 44 183 200 192 192 204 64 59 3 239 237 198 218 234 234 236 241 240 230 229 231 233 237 240 242 245
187 181 179 193 188 175 179 171 115 89 55 38 49 27 27 29 42 38 25 87 61 123 122 104 49 34 18 46 67 210 234 223 244 253 248 242 240 234 235 242 242 245 242
185 183 178 195 182 168 174 170 141 119 23 86 118 98 50 355 32 19 21 36 60 47 84 79 88 80 59 51 57 76 81 86 78 59 61 50 331 340 354 329 331 331 311
194 191 181 176 183 177 182 177 157 158 176 121 128 137 131 180 72 0 15 21 48 61 41 83 100 100 94 78 51 67 77 77 89 89 94 102 96 87 45 8 359 355 1
197 184 178 180 186 182 179 192 169 166 148 171 120 58 68 140 146 138 350 353 12 83 322 312 168 168 162 128 60 92 119 116 98 93 91 85 74 60 57 36 17 10 6
191 194 181 181 190 189 186 181 169 177 162 144 151 147 107 74 88 135 194 257 320 254 244 238 238 229 199 183 181 233 201 176 174 166 148 86 24 1 346 342 340 345 350
190 199 184 184 189 188 184 190 183 173 175 151 161 163 169 171 180 150 138 190 210 280 269 243 237 231 224 218 209 217 233 228 230 249 268 278 289 307 316 320 321 321 322
183 193 179 181 185 193 190 173 168 182 171 170 171 187 188 180 141 119 116 122 179 231 294 251 239 237 227 222 223 219 234 243 250 256 260 266 272 278 290 298 304 306 306
197 184 191 189 193 188 180 173 182 179 169 172 179 184 179 185 173 158 157 145 110 345 301 260 249 246 240 221 221 220 228 240 245 248 256 270 277 281 279 276 277 282 286
189 183 187 193 195 186 180 174 189 184 176 181 187 185 184 187 191 172 162 163 151 186 241 261 257 256 265 236 227 219 230 242 249 250 252 255 263 266 266 267 276 280 276
187 179 185 193 193 187 184 177 186 179 178 188 186 183 189 187 192 184 176 169 174 163 204 210 231 279 327 22 244 225 251 268 255 255 243 250 261 268 268 267 266 267 277
186 186 184 191 192 189 183 185 189 187 189 184 190 193 196 187 193 186 173 169 179 154 184 250 228 278 300 137 121 287 244 252 260 241 243 247 257 262 263 261 272 279 280
188 190 185 191 192 193 186 190 195 194 195 195 199 194 200 192 194 185 184 180 184 184 170 212 197 206 214 211 194 201 334 303 282 273 250 267 269 261 266 277 279 285 287
189 190 188 192 193 192 187 196 195 191 197 203 199 201 200 190 196 194 189 194 192 185 194 192 198 190 210 225 199 190 262 286 264 276 276 236 190 218 247 248 291 289 291
185 192 197 196 195 192 193 194 193 194 199 204 204 209 198 197 199 191 193 194 189 184 187 194 208 196 214 220 250 234 321 236 283 318 290 283 292 271 305 295 284 277 275
194 194 194 201 196 195 195 190 193 195 198 205 210 211 205 195 203 194 185 193 183 188 188 194 199 191 211 213 214 178 240 299 287 265 272 245 242 257 286 270 274 267 263
196 191 199 201 199 205 197 185 188 196 199 205 210 210 188 197 218 199 203 191 184 184 196 183 199 208 219 221 201 205 146 309 306 190 274 288 228 279 283 285 271 259 260
191 198 201 202 208 209 186 185 190 194 194 202 207 199 195 209 205 201 208 206 192 195 178 185 204 211 223 205 193 196 208 214 240 267 248 283 235 271 285 286 265 272 265
193 194 199 200 202 209 183 188 194 197 196 197 196 195 200 200 199 192 186 200 210 211 202 192 210 220 223 182 206 211 206 228 267 265 213 250 266 268 288 274 270 276 283
199 200 193 195 200 203 185 193 184 197 194 192 188 191 197 204 196 173 183 197 203 202 192 199 196 206 191 189 198 163 225 217 250 252 186 232 240 264 275 281 287 288 287
202 195 199 197 197 204 192 186 185 189 190 189 188 192 190 195 176 176 184 189 193 201 187 175 225 225 217 204 190 208 208 231 220 265 176 213 243 278 288 242 284 284 288